Location: Grabów nad Wisłą
(51.3552°N, 21.6752°E)
Time: 04:51:51
(UTC+01:00)

ISS - Visible Passes

Search period start: 24 November 2017 00:00
Search period end: 04 December 2017 00:00
Orbit: 402 x 407 km, 51.6° (Epoch: 24 November)

Date Brightness Start Highest point End Pass type
(mag) Time Alt. Az. Time Alt. Az. Time Alt. Az.
28 Nov -1.0 18:17:17 10° SSW 18:17:50 13° SSW 18:17:50 13° SSW visible
29 Nov -2.0 17:25:33 10° SSW 17:27:45 19° SSE 17:27:45 19° SSE visible
30 Nov -1.4 16:34:21 10° SSE 16:35:51 13° SE 16:37:23 10° ESE visible
30 Nov -1.9 18:08:34 10° SW 18:10:15 26° SW 18:10:15 26° SW visible
01 Dec -2.8 17:16:28 10° SW 17:19:27 33° SSE 17:20:01 31° SE visible
01 Dec -0.3 18:52:27 10° W 18:52:40 12° W 18:52:40 12° W visible
02 Dec -2.1 16:24:34 10° SSW 16:27:13 22° SE 16:29:44 11° E visible
02 Dec -2.7 18:00:04 10° WSW 18:02:23 42° WSW 18:02:23 42° WSW visible
03 Dec -3.5 17:07:45 10° WSW 17:10:57 54° SSE 17:12:04 34° E visible
03 Dec -0.6 18:44:05 10° W 18:44:42 15° W 18:44:42 15° W visible
